• en Suisse
  • Liste des pays
  • À 7 jours
  • Température de l'eau
  • Carte satellitaire
  • Carte météo
  • Widgets météo
  • user-avatar
    Se connecter

    Météo par heure à Nadżaf

    Ce jour, 18 Octobre, Jeudi

    Heure Température Précipitation Vent Pression Humidité
    00:00 +34°C° 0 mm 4 m/s 748 mmHg 18%
    01:00 +33°C° 0 mm 4 m/s 748 mmHg 18%
    02:00 +33°C° 0 mm 3 m/s 748 mmHg 19%
    03:00 +31°C° 0 mm 3 m/s 748 mmHg 19%
    04:00 +31°C° 0 mm 3 m/s 748 mmHg 20%
    05:00 +31°C° 0 mm 3 m/s 749 mmHg 20%
    06:00 +30°C° 0 mm 3 m/s 749 mmHg 20%
    07:00 +33°C° 0 mm 3 m/s 749 mmHg 19%
    08:00 +34°C° 0 mm 4 m/s 749 mmHg 17%
    09:00 +35°C° 0 mm 4 m/s 749 mmHg 15%
    10:00 +37°C° 0 mm 4 m/s 749 mmHg 14%
    11:00 +38°C° 0 mm 4 m/s 749 mmHg 13%
    12:00 +41°C° 0 mm 5 m/s 749 mmHg 12%
    13:00 +41°C° 0 mm 4 m/s 748 mmHg 11%
    14:00 +41°C° 0 mm 4 m/s 748 mmHg 11%
    15:00 +40°C° 0 mm 3 m/s 747 mmHg 10%
    16:00 +39°C° 0 mm 3 m/s 747 mmHg 11%
    17:00 +38°C° 0 mm 2 m/s 747 mmHg 12%
    18:00 +38°C° 0 mm 2 m/s 747 mmHg 13%
    19:00 +37°C° 0 mm 3 m/s 747 mmHg 13%
    20:00 +36°C° 0 mm 3 m/s 748 mmHg 14%
    21:00 +35°C° 0 mm 4 m/s 748 mmHg 15%
    22:00 +35°C° 0 mm 4 m/s 748 mmHg 16%
    23:00 +34°C° 0 mm 4 m/s 748 mmHg 17%

    Demain, 19 Octobre, Vendredi

    Heure Température Précipitation Vent Pression Humidité
    00:00 +34°C° 0 mm 4 m/s 748 mmHg 17%
    01:00 +33°C° 0 mm 4 m/s 748 mmHg 18%
    02:00 +33°C° 0 mm 4 m/s 748 mmHg 19%
    03:00 +32°C° 0 mm 4 m/s 748 mmHg 20%
    04:00 +31°C° 0 mm 3 m/s 748 mmHg 21%
    05:00 +30°C° 0 mm 3 m/s 748 mmHg 21%
    06:00 +30°C° 0 mm 3 m/s 749 mmHg 22%
    07:00 +31°C° 0.1 mm 3 m/s 749 mmHg 21%
    08:00 +33°C° 0.1 mm 3 m/s 749 mmHg 20%
    09:00 +35°C° 0.1 mm 3 m/s 750 mmHg 18%
    10:00 +36°C° 0 mm 2 m/s 750 mmHg 17%
    11:00 +37°C° 0 mm 2 m/s 749 mmHg 16%
    12:00 +37°C° 0 mm 1 m/s 749 mmHg 15%
    13:00 +37°C° 0 mm 1 m/s 749 mmHg 15%
    14:00 +39°C° 0 mm 1 m/s 748 mmHg 14%
    15:00 +39°C° 0 mm 1 m/s 748 mmHg 14%
    16:00 +38°C° 0.1 mm 2 m/s 748 mmHg 15%
    17:00 +37°C° 0.1 mm 2 m/s 748 mmHg 16%
    18:00 +36°C° 0.1 mm 2 m/s 748 mmHg 17%
    19:00 +36°C° 0.1 mm 2 m/s 748 mmHg 18%
    20:00 +35°C° 0.1 mm 2 m/s 748 mmHg 19%
    21:00 +35°C° 0.1 mm 2 m/s 749 mmHg 20%
    22:00 +34°C° 0.1 mm 3 m/s 749 mmHg 20%
    23:00 +34°C° 0.1 mm 3 m/s 749 mmHg 21%

    Après-demain, 20 Octobre, Samedi

    Heure Température Précipitation Vent Pression Humidité
    00:00 +33°C° 0.1 mm 3 m/s 749 mmHg 22%
    01:00 +33°C° 0 mm 3 m/s 748 mmHg 22%
    02:00 +33°C° 0 mm 3 m/s 748 mmHg 22%
    03:00 +33°C° 0 mm 4 m/s 748 mmHg 21%
    04:00 +32°C° 0.1 mm 4 m/s 748 mmHg 22%
    05:00 +32°C° 0.1 mm 4 m/s 748 mmHg 23%
    06:00 +30°C° 0.1 mm 4 m/s 748 mmHg 24%
    07:00 +32°C° 0.1 mm 4 m/s 749 mmHg 23%
    08:00 +34°C° 0.1 mm 4 m/s 749 mmHg 21%
    09:00 +35°C° 0.1 mm 4 m/s 750 mmHg 20%
    10:00 +36°C° 0.1 mm 5 m/s 749 mmHg 18%
    11:00 +38°C° 0.1 mm 6 m/s 749 mmHg 17%
    12:00 +40°C° 0.1 mm 6 m/s 749 mmHg 15%
    13:00 +40°C° 0 mm 6 m/s 748 mmHg 15%
    14:00 +40°C° 0 mm 6 m/s 748 mmHg 14%
    15:00 +41°C° 0 mm 6 m/s 747 mmHg 13%
    16:00 +40°C° 0.1 mm 6 m/s 747 mmHg 15%
    17:00 +39°C° 0.1 mm 5 m/s 747 mmHg 17%
    18:00 +36°C° 0.1 mm 5 m/s 747 mmHg 19%
    19:00 +36°C° 0.2 mm 5 m/s 747 mmHg 20%
    20:00 +35°C° 0.2 mm 5 m/s 747 mmHg 22%
    21:00 +34°C° 0.2 mm 5 m/s 747 mmHg 23%
    22:00 +34°C° 0.6 mm 5 m/s 748 mmHg 25%
    23:00 +33°C° 0.6 mm 4 m/s 748 mmHg 28%

    21 Octobre, Dimanche

    Heure Température Précipitation Vent Pression Humidité
    00:00 +32°C° 0.6 mm 4 m/s 748 mmHg 30%
    01:00 +32°C° 0.2 mm 5 m/s 748 mmHg 30%
    02:00 +32°C° 0.2 mm 5 m/s 747 mmHg 30%
    03:00 +30°C° 0.2 mm 5 m/s 747 mmHg 30%
    04:00 +30°C° 0.1 mm 5 m/s 747 mmHg 30%
    05:00 +30°C° 0.1 mm 5 m/s 748 mmHg 30%
    06:00 +29°C° 0.1 mm 5 m/s 748 mmHg 30%
    07:00 +30°C° 0 mm 7 m/s 748 mmHg 28%
    08:00 +32°C° 0 mm 8 m/s 748 mmHg 27%
    09:00 +34°C° 0 mm 9 m/s 748 mmHg 25%
    10:00 +35°C° 0.1 mm 8 m/s 748 mmHg 24%
    11:00 +37°C° 0.1 mm 8 m/s 748 mmHg 23%
    12:00 +38°C° 0.1 mm 7 m/s 748 mmHg 21%
    13:00 +39°C° 0.2 mm 6 m/s 747 mmHg 21%
    14:00 +39°C° 0.2 mm 5 m/s 747 mmHg 21%
    15:00 +38°C° 0.2 mm 4 m/s 746 mmHg 21%
    16:00 +37°C° 0.2 mm 4 m/s 747 mmHg 23%
    17:00 +36°C° 0.2 mm 4 m/s 747 mmHg 26%
    18:00 +35°C° 0.2 mm 4 m/s 747 mmHg 28%
    19:00 +34°C° 0 mm 4 m/s 747 mmHg 29%
    20:00 +33°C° 0 mm 3 m/s 747 mmHg 29%
    21:00 +32°C° 0 mm 2 m/s 748 mmHg 30%
    22:00 +33°C° 0 mm 3 m/s 748 mmHg 30%
    23:00 +31°C° 0 mm 3 m/s 748 mmHg 31%

    22 Octobre, Lundi

    Heure Température Précipitation Vent Pression Humidité
    00:00 +31°C° 0 mm 3 m/s 748 mmHg 31%
    01:00 +30°C° 0 mm 3 m/s 748 mmHg 33%
    02:00 +30°C° 0 mm 3 m/s 748 mmHg 35%
    03:00 +29°C° 0 mm 3 m/s 748 mmHg 37%
    04:00 +29°C° 0 mm 2 m/s 749 mmHg 38%
    05:00 +28°C° 0 mm 2 m/s 749 mmHg 39%
    06:00 +28°C° 0 mm 2 m/s 750 mmHg 39%
    07:00 +29°C° 0 mm 3 m/s 750 mmHg 38%
    08:00 +30°C° 0 mm 3 m/s 750 mmHg 37%
    09:00 +32°C° 0 mm 4 m/s 751 mmHg 35%
    10:00 +33°C° 0 mm 3 m/s 751 mmHg 32%
    11:00 +34°C° 0 mm 3 m/s 750 mmHg 29%
    12:00 +35°C° 0 mm 2 m/s 750 mmHg 26%
    13:00 +35°C° 0 mm 1 m/s 750 mmHg 23%
    14:00 +35°C° 0 mm 1 m/s 749 mmHg 20%
    15:00 +34°C° 0 mm 0 m/s 749 mmHg 18%
    16:00 +33°C° 0 mm 0 m/s 749 mmHg 19%
    17:00 +34°C° 0 mm 1 m/s 749 mmHg 21%
    18:00 +33°C° 0 mm 1 m/s 749 mmHg 23%
    19:00 +33°C° 0 mm 1 m/s 750 mmHg 23%
    20:00 +32°C° 0 mm 1 m/s 750 mmHg 24%
    21:00 +32°C° 0 mm 2 m/s 750 mmHg 25%
    22:00 +32°C° 0 mm 2 m/s 750 mmHg 28%
    23:00 +31°C° 0 mm 3 m/s 750 mmHg 32%

    23 Octobre, Mardi

    Heure Température Précipitation Vent Pression Humidité
    00:00 +32°C° 0 mm 4 m/s 750 mmHg 36%
    01:00 +30°C° 0 mm 4 m/s 750 mmHg 42%
    02:00 +30°C° 0 mm 3 m/s 750 mmHg 48%
    03:00 +29°C° 0 mm 3 m/s 750 mmHg 54%
    04:00 +29°C° 0 mm 3 m/s 750 mmHg 56%
    05:00 +29°C° 0 mm 4 m/s 750 mmHg 57%
    06:00 +29°C° 0 mm 4 m/s 750 mmHg 59%
    07:00 +30°C° 0 mm 4 m/s 751 mmHg 57%
    08:00 +32°C° 0 mm 5 m/s 751 mmHg 54%
    09:00 +33°C° 0 mm 6 m/s 751 mmHg 52%
    10:00 +33°C° 0 mm 6 m/s 751 mmHg 49%
    11:00 +34°C° 0 mm 6 m/s 750 mmHg 46%
    12:00 +35°C° 0 mm 6 m/s 750 mmHg 43%
    13:00 +36°C° 0 mm 6 m/s 750 mmHg 40%
    14:00 +36°C° 0 mm 5 m/s 749 mmHg 37%
    15:00 +37°C° 0 mm 5 m/s 749 mmHg 34%
    16:00 +36°C° 0 mm 5 m/s 749 mmHg 35%
    17:00 +36°C° 0 mm 4 m/s 749 mmHg 36%
    18:00 +35°C° 0 mm 4 m/s 749 mmHg 37%
    19:00 +35°C° 0 mm 4 m/s 749 mmHg 37%
    20:00 +34°C° 0 mm 3 m/s 749 mmHg 38%
    21:00 +34°C° 0 mm 3 m/s 749 mmHg 38%
    22:00 +34°C° 0 mm 4 m/s 749 mmHg 38%
    23:00 +33°C° 0 mm 5 m/s 749 mmHg 37%
    Voir plus